Skip Page Navigation
NASA JPL Caltech
NASA Logo - Jet Propulsion Laboratory + View the NASA Portal
+ Center for Near-Earth Object Studies
JPL Home Earth Solar System Stars & Galaxies Technology
JPL Solar System Dynamics
BODIES ORBITS EPHEMERIDES TOOLS PHYSICAL DATA DISCOVERY FAQ SITE MAP
JPL Small-Body Database Browser
Search: [ help ]  
66539 (1999 RX117)
Classification: Main-belt Asteroid          SPK-ID: 2066539
Ephemeris | Orbit Diagram | Orbital Elements | Mission Design | Physical Parameters | Discovery Circumstances | Close-Approach Data ]

[ hide orbit diagram ]

For accurate long-term ephemerides, please instead use our Horizons system.This orbit viewer was implemented using two-body methods, and hence should not be used for determining accurate long-term trajectories (over several years or decades) or planetary encounter circumstances.


[ revert to old Java-based viewer ]

Orbital Elements at Epoch 2459000.5 (2020-May-31.0) TDB
Reference: JPL 19 (heliocentric ecliptic J2000)
 Element Value Uncertainty (1-sigma)   Units 
e .2431797395410427 2.8779e-08  
a 2.570697759925242 1.1844e-08 au
q 1.94555614822788 7.114e-08 au
i 7.398040276033996 4.4976e-06 deg
node 263.5085235633712 3.2264e-05 deg
peri 61.59902096815955 3.4433e-05 deg
M 13.72691707577701 1.2466e-05 deg
tp 2458943.095562606490
(2020-Apr-03.59556261)
5.2006e-05 TDB
period 1505.479879246226
4.12
1.0404e-05
2.848e-08
d
yr
n .2391264107629571 1.6526e-09 deg/d
Q 3.195839371622604 1.4724e-08 au
  Orbit Determination Parameters
   # obs. used (total)      1007  
   data-arc span      8247 days (22.58 yr)  
   first obs. used      1998-03-31  
   last obs. used      2020-10-28  
   planetary ephem.      DE431  
   SB-pert. ephem.      SB431-N16  
   condition code      0  
   norm. resid. RMS      .48299  
   source      ORB  
   producer      Otto Matic  
   solution date      2020-Nov-12 22:17:34  

Additional Information
 Earth MOID = .946319 au 
 Jupiter MOID = 2.18844 au 
 T_jup = 3.376 
[ show covariance matrix ]

Ephemeris | Orbit Diagram | Orbital Elements | Mission Design | Physical Parameters | Discovery Circumstances | Close-Approach Data ]

Physical Parameter Table
Parameter Symbol Value Units Sigma Reference Notes
absolute magnitude H 14.9   n/a MPO436246  

66539 (1999 RX117)          Discovered 1999-Sep-09 by LINEAR at Socorro
Reference: 20030910/Numbers.arcLast Updated: 2004-04-19

[ show close-approach data ]
Ephemeris | Orbit Diagram | Orbital Elements | Mission Design | Physical Parameters | Discovery Circumstances | Close-Approach Data ]
ABOUT SSD CREDITS/AWARDS PRIVACY/COPYRIGHT GLOSSARY LINKS
FirstGov 2020-Nov-26 16:33 UT
(server date/time)  
NASA Home Page
Site Manager:   Ryan S. Park
Webmaster  Alan B. Chamberlin